| time (UTC) | temp C | wind direction | speed KPH | gust KPH | rain 1hr cm | rain 24hr cm | rain mn cm | humidity % | barometer mb |
| 20260505184203 | 27 | 199 | 16.1 | 38.6 | 0.00 | 0.00 | 0.00 | 71 | 1003.5 |
| 20260505183603 | 27 | 203 | 14.5 | 30.6 | 0.00 | 0.00 | 0.00 | 71 | 1003.6 |
| 20260505183003 | 27 | 210 | 17.7 | 38.6 | 0.00 | 0.00 | 0.00 | 71 | 1003.7 |
| 20260505182403 | 27 | 208 | 16.1 | 38.6 | 0.00 | 0.00 | 0.00 | 70 | 1003.8 |
| 20260505181824 | 26 | 217 | 19.3 | 40.2 | 0.00 | 0.00 | 0.00 | 71 | 1003.8 |
| 20260505181203 | 26 | 217 | 20.9 | 40.2 | 0.00 | 0.00 | 0.00 | 70 | 1003.9 |
| 20260505180624 | 26 | 208 | 19.3 | 38.6 | 0.00 | 0.00 | 0.00 | 71 | 1003.9 |
| 20260505180003 | 26 | 206 | 20.9 | 46.7 | 0.00 | 0.00 | 0.00 | 72 | 1004.1 |
| 20260505175403 | 26 | 205 | 20.9 | 40.2 | 0.00 | 0.00 | 0.00 | 72 | 1004.0 |
| 20260505174824 | 26 | 202 | 19.3 | 49.9 | 0.00 | 0.00 | 0.00 | 72 | 1004.2 |
| 20260505174203 | 26 | 207 | 17.7 | 38.6 | 0.00 | 0.00 | 0.00 | 72 | 1004.3 |
| 20260505173645 | 26 | 217 | 17.7 | 41.8 | 0.00 | 0.00 | 0.00 | 73 | 1004.4 |
| 20260505173045 | 26 | 216 | 22.5 | 41.8 | 0.00 | 0.00 | 0.00 | 72 | 1004.4 |
| 20260505172445 | 26 | 209 | 20.9 | 41.8 | 0.00 | 0.00 | 0.00 | 72 | 1004.2 |
| 20260505171803 | 26 | 201 | 19.3 | 41.8 | 0.00 | 0.00 | 0.00 | 73 | 1004.1 |
| 20260505171203 | 25 | 205 | 20.9 | 41.8 | 0.00 | 0.00 | 0.00 | 73 | 1004.1 |
| 20260505170624 | 25 | 213 | 20.9 | 35.4 | 0.00 | 0.00 | 0.00 | 74 | 1004.1 |
| 20260505170024 | 25 | 213 | 20.9 | 45.1 | 0.00 | 0.00 | 0.00 | 75 | 1004.1 |
| 20260505165403 | 25 | 214 | 20.9 | 45.1 | 0.00 | 0.00 | 0.00 | 75 | 1004.1 |
| 20260505164803 | 25 | 213 | 22.5 | 45.1 | 0.00 | 0.00 | 0.00 | 76 | 1004.1 |
| 20260505164306 | 25 | 211 | 22.5 | 45.1 | 0.00 | 0.00 | 0.00 | 76 | 1004.1 |
| 20260505163603 | 24 | 208 | 20.9 | 45.1 | 0.00 | 0.00 | 0.00 | 77 | 1004.4 |
| 20260505163003 | 24 | 211 | 24.1 | 46.7 | 0.00 | 0.00 | 0.00 | 77 | 1004.5 |
| 20260505162403 | 24 | 211 | 22.5 | 46.7 | 0.00 | 0.00 | 0.00 | 77 | 1004.6 |
| 20260505161803 | 24 | 220 | 20.9 | 38.6 | 0.00 | 0.00 | 0.00 | 78 | 1004.5 |
| 20260505161203 | 24 | 213 | 19.3 | 53.1 | 0.00 | 0.00 | 0.00 | 78 | 1004.5 |
| 20260505160603 | 24 | 211 | 24.1 | 53.1 | 0.00 | 0.00 | 0.00 | 78 | 1004.1 |
| 20260505153003 | 23 | 211 | 24.1 | 49.9 | 0.00 | 0.00 | 0.00 | 80 | 1004.5 |
| 20260505152445 | 23 | 210 | 22.5 | 46.7 | 0.00 | 0.00 | 0.00 | 80 | 1004.3 |
| 20260505151803 | 23 | 211 | 19.3 | 46.7 | 0.00 | 0.00 | 0.00 | 80 | 1004.4 |
| 20260505151203 | 23 | 209 | 19.3 | 41.8 | 0.00 | 0.00 | 0.00 | 81 | 1004.4 |
| 20260505150603 | 23 | 210 | 19.3 | 35.4 | 0.00 | 0.00 | 0.00 | 81 | 1004.4 |
| 20260505140603 | 22 | 195 | 14.5 | 29.0 | 0.00 | 0.00 | 0.00 | 84 | 1004.2 |
| 20260505124803 | 21 | 203 | 16.1 | 33.8 | 0.00 | 0.00 | 0.00 | 85 | 1003.6 |
| 20260505124203 | 21 | 202 | 16.1 | 32.2 | 0.00 | 0.00 | 0.00 | 85 | 1003.5 |
| 20260505123603 | 21 | 202 | 14.5 | 32.2 | 0.00 | 0.00 | 0.00 | 85 | 1003.5 |
| 20260505123003 | 21 | 201 | 14.5 | 38.6 | 0.00 | 0.00 | 0.00 | 85 | 1003.6 |
| 20260505122403 | 21 | 203 | 12.9 | 25.7 | 0.00 | 0.00 | 0.00 | 85 | 1003.4 |
| 20260505121803 | 21 | 199 | 12.9 | 24.1 | 0.00 | 0.00 | 0.00 | 85 | 1003.4 |
| 20260505121224 | 21 | 186 | 11.3 | 22.5 | 0.00 | 0.00 | 0.00 | 85 | 1003.2 |
| 20260505120603 | 21 | 194 | 11.3 | 32.2 | 0.00 | 0.00 | 0.00 | 85 | 1003.2 |
| 20260505120003 | 21 | 203 | 11.3 | 32.2 | 0.00 | 0.00 | 0.00 | 85 | 1003.3 |
| 20260505115445 | 21 | 205 | 12.9 | 29.0 | 0.00 | 0.00 | 0.00 | 85 | 1003.2 |
| 20260505114824 | 21 | 206 | 12.9 | 29.0 | 0.00 | 0.00 | 0.00 | 85 | 1003.2 |
| 20260505114306 | 21 | 206 | 12.9 | 25.7 | 0.00 | 0.00 | 0.00 | 85 | 1003.0 |
| 20260505113603 | 21 | 197 | 12.9 | 25.7 | 0.00 | 0.00 | 0.00 | 85 | 1002.9 |
| 20260505113045 | 21 | 200 | 12.9 | 29.0 | 0.00 | 0.00 | 0.00 | 85 | 1002.9 |
| 20260505112403 | 21 | 207 | 14.5 | 32.2 | 0.00 | 0.00 | 0.00 | 85 | 1003.0 |
| 20260505111803 | 21 | 203 | 14.5 | 33.8 | 0.00 | 0.00 | 0.00 | 85 | 1003.1 |
| 20260505111203 | 21 | 197 | 14.5 | 33.8 | 0.00 | 0.00 | 0.00 | 85 | 1002.9 |
| 20260505110603 | 21 | 196 | 12.9 | 38.6 | 0.00 | 0.00 | 0.00 | 85 | 1002.8 |
| 20260505101803 | 21 | 195 | 12.9 | 25.7 | 0.00 | 0.00 | 0.00 | 85 | 1003.1 |
| 20260505101203 | 21 | 193 | 12.9 | 25.7 | 0.00 | 0.00 | 0.00 | 85 | 1003.1 |
| 20260505100624 | 21 | 194 | 12.9 | 25.7 | 0.00 | 0.00 | 0.00 | 85 | 1003.2 |
| 20260505100003 | 21 | 194 | 12.9 | 27.4 | 0.00 | 0.00 | 0.00 | 85 | 1003.3 |
| 20260505095403 | 21 | 199 | 12.9 | 24.1 | 0.00 | 0.00 | 0.00 | 85 | 1003.3 |
| 20260505094845 | 21 | 199 | 12.9 | 27.4 | 0.00 | 0.00 | 0.00 | 85 | 1003.5 |
| 20260505094224 | 21 | 196 | 12.9 | 27.4 | 0.00 | 0.00 | 0.00 | 85 | 1003.3 |
| 20260505093603 | 21 | 196 | 14.5 | 32.2 | 0.00 | 0.00 | 0.00 | 85 | 1003.3 |
| 20260505093003 | 21 | 191 | 12.9 | 29.0 | 0.00 | 0.00 | 0.00 | 85 | 1003.3 |
| 20260505092506 | 21 | 195 | 12.9 | 30.6 | 0.00 | 0.00 | 0.00 | 85 | 1003.4 |
| 20260505091803 | 21 | 200 | 14.5 | 32.2 | 0.00 | 0.00 | 0.00 | 85 | 1003.5 |
| 20260505091203 | 21 | 191 | 12.9 | 32.2 | 0.00 | 0.00 | 0.00 | 85 | 1003.4 |
| 20260505090603 | 21 | 193 | 12.9 | 30.6 | 0.00 | 0.00 | 0.00 | 85 | 1003.5 |
| 20260505090003 | 21 | 187 | 12.9 | 33.8 | 0.00 | 0.00 | 0.00 | 85 | 1003.4 |
| 20260505085424 | 21 | 186 | 14.5 | 29.0 | 0.00 | 0.00 | 0.00 | 85 | 1003.4 |
| 20260505084824 | 21 | 186 | 12.9 | 29.0 | 0.00 | 0.00 | 0.00 | 85 | 1003.4 |
| 20260505084203 | 21 | 183 | 14.5 | 32.2 | 0.00 | 0.00 | 0.00 | 85 | 1003.3 |
| 20260505083603 | 21 | 184 | 14.5 | 29.0 | 0.00 | 0.00 | 0.00 | 85 | 1003.4 |
| 20260505083024 | 21 | 181 | 14.5 | 30.6 | 0.00 | 0.00 | 0.00 | 85 | 1003.5 |
| 20260505082445 | 21 | 179 | 14.5 | 27.4 | 0.00 | 0.00 | 0.00 | 85 | 1003.6 |
| 20260505081803 | 21 | 179 | 14.5 | 35.4 | 0.00 | 0.00 | 0.00 | 85 | 1003.6 |
| 20260505081224 | 21 | 180 | 16.1 | 35.4 | 0.00 | 0.00 | 0.00 | 85 | 1003.8 |
| 20260505080603 | 21 | 181 | 14.5 | 29.0 | 0.00 | 0.00 | 0.00 | 85 | 1003.8 |
| 20260505080003 | 21 | 185 | 14.5 | 33.8 | 0.00 | 0.00 | 0.00 | 85 | 1003.9 |
| 20260505075424 | 21 | 191 | 14.5 | 33.8 | 0.00 | 0.00 | 0.00 | 85 | 1004.1 |
| 20260505074845 | 21 | 191 | 14.5 | 29.0 | 0.00 | 0.00 | 0.00 | 85 | 1004.2 |
| 20260505074245 | 21 | 184 | 14.5 | 27.4 | 0.00 | 0.00 | 0.00 | 85 | 1004.1 |
| 20260505073645 | 21 | 181 | 14.5 | 29.0 | 0.00 | 0.00 | 0.00 | 85 | 1004.1 |
| 20260505073003 | 21 | 181 | 16.1 | 32.2 | 0.00 | 0.00 | 0.00 | 84 | 1004.1 |
| 20260505072403 | 21 | 182 | 17.7 | 32.2 | 0.00 | 0.00 | 0.00 | 84 | 1004.1 |
| 20260505071845 | 21 | 182 | 17.7 | 32.2 | 0.00 | 0.00 | 0.00 | 84 | 1004.2 |
| 20260505071203 | 21 | 184 | 16.1 | 27.4 | 0.00 | 0.00 | 0.00 | 84 | 1004.4 |
| 20260505070603 | 21 | 186 | 16.1 | 27.4 | 0.00 | 0.00 | 0.00 | 84 | 1004.5 |
| 20260505070024 | 21 | 180 | 16.1 | 30.6 | 0.00 | 0.00 | 0.00 | 84 | 1004.5 |
| 20260505065445 | 21 | 176 | 16.1 | 29.0 | 0.00 | 0.00 | 0.00 | 84 | 1004.6 |
| 20260505064803 | 21 | 178 | 16.1 | 29.0 | 0.00 | 0.00 | 0.00 | 84 | 1004.8 |
| 20260505064203 | 21 | 177 | 14.5 | 29.0 | 0.00 | 0.00 | 0.00 | 84 | 1005.0 |
| 20260505063603 | 21 | 180 | 12.9 | 22.5 | 0.00 | 0.00 | 0.00 | 84 | 1005.0 |
| 20260505063003 | 21 | 183 | 12.9 | 33.8 | 0.00 | 0.00 | 0.00 | 84 | 1005.1 |
| 20260505062403 | 21 | 183 | 12.9 | 32.2 | 0.00 | 0.00 | 0.00 | 84 | 1005.2 |
| 20260505061803 | 21 | 184 | 12.9 | 32.2 | 0.00 | 0.00 | 0.00 | 84 | 1005.3 |
| 20260505061203 | 21 | 178 | 12.9 | 24.1 | 0.00 | 0.00 | 0.00 | 84 | 1005.2 |
| 20260505060603 | 21 | 177 | 12.9 | 24.1 | 0.00 | 0.00 | 0.00 | 84 | 1005.1 |
| 20260505060003 | 21 | 173 | 12.9 | 25.7 | 0.00 | 0.00 | 0.00 | 83 | 1005.1 |
| 20260505055403 | 21 | 177 | 14.5 | 25.7 | 0.00 | 0.00 | 0.00 | 83 | 1005.2 |
| 20260505054824 | 21 | 177 | 14.5 | 25.7 | 0.00 | 0.00 | 0.00 | 83 | 1005.0 |
| 20260505054306 | 21 | 172 | 12.9 | 25.7 | 0.00 | 0.00 | 0.00 | 82 | 1005.0 |
| 20260505053624 | 21 | 173 | 11.3 | 24.1 | 0.00 | 0.00 | 0.00 | 82 | 1005.0 |
| 20260505053003 | 22 | 177 | 11.3 | 27.4 | 0.00 | 0.00 | 0.00 | 81 | 1005.1 |
| 20260505052445 | 22 | 179 | 12.9 | 27.4 | 0.00 | 0.00 | 0.00 | 81 | 1005.2 |
| 20260505051824 | 22 | 186 | 12.9 | 25.7 | 0.00 | 0.00 | 0.00 | 80 | 1005.3 |
| 20260505051224 | 22 | 192 | 14.5 | 32.2 | 0.00 | 0.00 | 0.00 | 80 | 1005.4 |
| 20260505050603 | 22 | 190 | 16.1 | 32.2 | 0.00 | 0.00 | 0.00 | 80 | 1005.3 |
| 20260505041224 | 22 | 181 | 11.3 | 25.7 | 0.00 | 0.00 | 0.00 | 78 | 1005.3 |
| 20260505040624 | 22 | 176 | 11.3 | 22.5 | 0.00 | 0.00 | 0.00 | 78 | 1005.2 |
| 20260505040004 | 22 | 170 | 9.7 | 20.9 | 0.00 | 0.00 | 0.00 | 78 | 1005.1 |
| 20260505035424 | 22 | 170 | 9.7 | 20.9 | 0.00 | 0.00 | 0.00 | 78 | 1005.1 |
| 20260505034803 | 22 | 168 | 9.7 | 20.9 | 0.00 | 0.00 | 0.00 | 77 | 1005.1 |
| 20260505034224 | 22 | 167 | 11.3 | 24.1 | 0.00 | 0.00 | 0.00 | 77 | 1005.0 |
| 20260505033624 | 22 | 168 | 11.3 | 24.1 | 0.00 | 0.00 | 0.00 | 77 | 1005.1 |
| 20260505033003 | 22 | 169 | 9.7 | 20.9 | 0.00 | 0.00 | 0.00 | 76 | 1005.3 |
| 20260505032403 | 23 | 171 | 11.3 | 22.5 | 0.00 | 0.00 | 0.00 | 75 | 1005.3 |
| 20260505031803 | 23 | 174 | 11.3 | 22.5 | 0.00 | 0.00 | 0.00 | 75 | 1005.1 |
| 20260505031245 | 23 | 173 | 11.3 | 22.5 | 0.00 | 0.00 | 0.00 | 74 | 1005.1 |
| 20260505030624 | 23 | 173 | 11.3 | 22.5 | 0.00 | 0.00 | 0.00 | 74 | 1005.2 |
| 20260505030003 | 23 | 171 | 11.3 | 27.4 | 0.00 | 0.00 | 0.00 | 74 | 1005.0 |
| 20260505025403 | 23 | 170 | 9.7 | 27.4 | 0.00 | 0.00 | 0.00 | 73 | 1005.0 |
| 20260505024803 | 23 | 171 | 9.7 | 22.5 | 0.00 | 0.00 | 0.00 | 73 | 1004.9 |
| 20260505024224 | 23 | 171 | 9.7 | 22.5 | 0.00 | 0.00 | 0.00 | 72 | 1004.9 |
| 20260505023624 | 23 | 172 | 11.3 | 22.5 | 0.00 | 0.00 | 0.00 | 72 | 1004.9 |
| 20260505023106 | 23 | 171 | 11.3 | 24.1 | 0.00 | 0.00 | 0.00 | 71 | 1004.8 |
| 20260505022445 | 23 | 170 | 11.3 | 24.1 | 0.00 | 0.00 | 0.00 | 71 | 1004.7 |
| 20260505021803 | 23 | 167 | 11.3 | 29.0 | 0.00 | 0.00 | 0.00 | 71 | 1004.7 |
| 20260505021306 | 23 | 164 | 11.3 | 24.1 | 0.00 | 0.00 | 0.00 | 71 | 1004.7 |
| 20260505020624 | 23 | 165 | 11.3 | 27.4 | 0.00 | 0.00 | 0.00 | 71 | 1004.7 |
| 20260505020003 | 23 | 167 | 9.7 | 22.5 | 0.00 | 0.00 | 0.00 | 71 | 1004.7 |
| 20260505015403 | 23 | 164 | 12.9 | 24.1 | 0.00 | 0.00 | 0.00 | 71 | 1004.6 |
| 20260505014824 | 23 | 163 | 14.5 | 25.7 | 0.00 | 0.00 | 0.00 | 71 | 1004.4 |
| 20260505014203 | 23 | 164 | 11.3 | 24.1 | 0.00 | 0.00 | 0.00 | 70 | 1004.4 |
| 20260505013624 | 24 | 163 | 11.3 | 24.1 | 0.00 | 0.00 | 0.00 | 70 | 1004.5 |
| 20260505013045 | 24 | 164 | 12.9 | 25.7 | 0.00 | 0.00 | 0.00 | 69 | 1004.4 |
| 20260505012403 | 24 | 167 | 11.3 | 25.7 | 0.00 | 0.00 | 0.00 | 68 | 1004.4 |
| 20260505011824 | 24 | 166 | 11.3 | 30.6 | 0.00 | 0.00 | 0.00 | 68 | 1004.3 |
| 20260505011203 | 25 | 172 | 11.3 | 30.6 | 0.00 | 0.00 | 0.00 | 67 | 1004.3 |
| 20260505010624 | 25 | 172 | 12.9 | 27.4 | 0.00 | 0.00 | 0.00 | 67 | 1004.4 |
| 20260505010045 | 25 | 172 | 12.9 | 27.4 | 0.00 | 0.00 | 0.00 | 66 | 1004.4 |
| 20260505005445 | 25 | 178 | 11.3 | 22.5 | 0.00 | 0.00 | 0.00 | 66 | 1004.4 |
| 20260505004824 | 25 | 181 | 12.9 | 29.0 | 0.00 | 0.00 | 0.00 | 65 | 1004.5 |
| 20260505004224 | 25 | 177 | 14.5 | 29.0 | 0.00 | 0.00 | 0.00 | 65 | 1004.6 |
| 20260505003603 | 25 | 177 | 14.5 | 29.0 | 0.00 | 0.00 | 0.00 | 65 | 1004.6 |
| 20260505003003 | 25 | 173 | 12.9 | 25.7 | 0.00 | 0.00 | 0.00 | 66 | 1004.5 |
| 20260505002445 | 25 | 168 | 14.5 | 25.7 | 0.00 | 0.00 | 0.00 | 67 | 1004.6 |
| 20260505001803 | 25 | 162 | 16.1 | 25.7 | 0.00 | 0.00 | 0.00 | 67 | 1004.6 |
| 20260505001203 | 25 | 159 | 16.1 | 33.8 | 0.00 | 0.00 | 0.00 | 67 | 1004.7 |
| 20260505000624 | 25 | 164 | 14.5 | 33.8 | 0.00 | 0.00 | 0.00 | 66 | 1004.7 |
| 20260505000024 | 25 | 163 | 14.5 | 32.2 | 0.00 | 0.00 | 0.00 | 65 | 1004.8 |
| 20260504235424 | 25 | 165 | 16.1 | 37.0 | 0.00 | 0.00 | 0.00 | 65 | 1004.8 |
| 20260504234845 | 25 | 170 | 17.7 | 38.6 | 0.00 | 0.00 | 0.00 | 64 | 1004.8 |
| 20260504234224 | 25 | 175 | 16.1 | 35.4 | 0.00 | 0.00 | 0.00 | 64 | 1004.8 |
| 20260504233706 | 25 | 172 | 17.7 | 38.6 | 0.00 | 0.00 | 0.00 | 64 | 1004.9 |
| 20260504233045 | 25 | 174 | 17.7 | 38.6 | 0.00 | 0.00 | 0.00 | 63 | 1005.0 |
| 20260504232445 | 25 | 177 | 17.7 | 32.2 | 0.00 | 0.00 | 0.00 | 63 | 1005.0 |
| 20260504231824 | 26 | 179 | 16.1 | 35.4 | 0.00 | 0.00 | 0.00 | 63 | 1005.2 |
| 20260504231203 | 25 | 177 | 16.1 | 32.2 | 0.00 | 0.00 | 0.00 | 63 | 1005.3 |
| 20260504230603 | 25 | 176 | 17.7 | 38.6 | 0.00 | 0.00 | 0.00 | 63 | 1005.3 |
| 20260504230106 | 25 | 173 | 19.3 | 35.4 | 0.00 | 0.00 | 0.00 | 63 | 1005.4 |
| 20260504225403 | 25 | 174 | 16.1 | 35.4 | 0.00 | 0.00 | 0.00 | 63 | 1005.6 |
| 20260504224803 | 25 | 167 | 17.7 | 40.2 | 0.00 | 0.00 | 0.00 | 64 | 1005.6 |
| 20260504224224 | 25 | 172 | 17.7 | 40.2 | 0.00 | 0.00 | 0.00 | 62 | 1005.6 |
| 20260504223603 | 25 | 186 | 16.1 | 41.8 | 0.00 | 0.00 | 0.00 | 63 | 1005.5 |
| 20260504223003 | 25 | 188 | 16.1 | 41.8 | 0.00 | 0.00 | 0.00 | 62 | 1005.5 |
| 20260504222445 | 26 | 191 | 16.1 | 35.4 | 0.00 | 0.00 | 0.00 | 62 | 1005.6 |
| 20260504221906 | 26 | 182 | 16.1 | 35.4 | 0.00 | 0.00 | 0.00 | 62 | 1005.6 |
| 20260504221203 | 25 | 189 | 16.1 | 37.0 | 0.00 | 0.00 | 0.00 | 62 | 1005.8 |
| 20260504220647 | 25 | 188 | 19.3 | 38.6 | 0.00 | 0.00 | 0.00 | 61 | 1005.9 |
| 20260504220024 | 25 | 182 | 17.7 | 38.6 | 0.00 | 0.00 | 0.00 | 61 | 1006.0 |
| 20260504215403 | 25 | 180 | 17.7 | 33.8 | 0.00 | 0.00 | 0.00 | 62 | 1006.0 |
| 20260504214803 | 25 | 179 | 17.7 | 33.8 | 0.00 | 0.00 | 0.00 | 62 | 1006.0 |
| 20260504214306 | 25 | 189 | 19.3 | 38.6 | 0.00 | 0.00 | 0.00 | 62 | 1006.1 |
| 20260504213603 | 25 | 185 | 20.9 | 43.5 | 0.00 | 0.00 | 0.00 | 60 | 1006.4 |
| 20260504213003 | 26 | 188 | 22.5 | 48.3 | 0.00 | 0.00 | 0.00 | 61 | 1006.2 |
| 20260504212403 | 25 | 184 | 19.3 | 43.5 | 0.00 | 0.00 | 0.00 | 62 | 1006.4 |
| 20260504211824 | 25 | 186 | 19.3 | 43.5 | 0.00 | 0.00 | 0.00 | 62 | 1006.5 |
| 20260504211203 | 25 | 182 | 17.7 | 43.5 | 0.00 | 0.00 | 0.00 | 63 | 1006.6 |
| 20260504210624 | 25 | 180 | 17.7 | 45.1 | 0.00 | 0.00 | 0.00 | 62 | 1006.8 |
| 20260504210024 | 25 | 196 | 19.3 | 45.1 | 0.00 | 0.00 | 0.00 | 62 | 1006.9 |
| 20260504205424 | 25 | 200 | 19.3 | 45.1 | 0.00 | 0.00 | 0.00 | 61 | 1007.1 |
| 20260504204824 | 25 | 187 | 20.9 | 45.1 | 0.00 | 0.00 | 0.00 | 62 | 1007.2 |
| 20260504204203 | 25 | 176 | 19.3 | 40.2 | 0.00 | 0.00 | 0.00 | 62 | 1007.2 |
| 20260504203624 | 25 | 181 | 17.7 | 40.2 | 0.00 | 0.00 | 0.00 | 63 | 1007.3 |
| 20260504203003 | 25 | 176 | 17.7 | 43.5 | 0.00 | 0.00 | 0.00 | 62 | 1007.5 |
| 20260504202445 | 25 | 180 | 17.7 | 43.5 | 0.00 | 0.00 | 0.00 | 62 | 1007.6 |
| 20260504201824 | 25 | 191 | 17.7 | 41.8 | 0.00 | 0.00 | 0.00 | 61 | 1007.7 |
| 20260504201203 | 25 | 192 | 19.3 | 43.5 | 0.00 | 0.00 | 0.00 | 61 | 1007.9 |
| 20260504200603 | 25 | 193 | 19.3 | 43.5 | 0.00 | 0.00 | 0.00 | 61 | 1007.9 |
| 20260504200003 | 25 | 184 | 19.3 | 41.8 | 0.00 | 0.00 | 0.00 | 61 | 1008.0 |
| 20260504195424 | 25 | 174 | 19.3 | 40.2 | 0.00 | 0.00 | 0.00 | 61 | 1008.3 |
| 20260504194824 | 25 | 183 | 19.3 | 35.4 | 0.00 | 0.00 | 0.00 | 62 | 1008.3 |
| 20260504194224 | 25 | 180 | 19.3 | 37.0 | 0.00 | 0.00 | 0.00 | 62 | 1008.4 |
| 20260504193624 | 25 | 168 | 19.3 | 38.6 | 0.00 | 0.00 | 0.00 | 63 | 1008.3 |
| 20260504193003 | 25 | 168 | 19.3 | 38.6 | 0.00 | 0.00 | 0.00 | 63 | 1008.3 |
| 20260504192445 | 25 | 178 | 16.1 | 38.6 | 0.00 | 0.00 | 0.00 | 62 | 1008.5 |
| 20260504191824 | 25 | 193 | 16.1 | 37.0 | 0.00 | 0.00 | 0.00 | 62 | 1008.5 |
| 20260504191306 | 25 | 193 | 17.7 | 46.7 | 0.00 | 0.00 | 0.00 | 62 | 1008.8 |
| 20260504190603 | 25 | 177 | 16.1 | 32.2 | 0.00 | 0.00 | 0.00 | 62 | 1008.8 |
| 20260504190024 | 24 | 181 | 17.7 | 40.2 | 0.00 | 0.00 | 0.00 | 62 | 1008.9 |
| 20260504185403 | 24 | 203 | 20.9 | 40.2 | 0.00 | 0.00 | 0.00 | 64 | 1009.0 |
| 20260504184803 | 24 | 199 | 22.5 | 40.2 | 0.00 | 0.00 | 0.00 | 62 | 1009.2 |